Date,TemperatureHighF,TemperatureAvgF,TemperatureLowF,DewpointHighF,DewpointAvgF,DewpointLowF,HumidityHigh,HumidityAvg,HumidityLow,PressureMaxIn,PressureMinIn,WindSpeedMaxMPH,WindSpeedAvgMPH,GustSpeedMaxMPH,PrecipitationSumIn
2013-1-1,68.3,62.1,54.7,68.0,61.5,53.6,99,98,96,30.02,29.90,17,3,0,0.07
2013-1-2,45.6,42.8,41.7,41.6,38.8,36.6,90,86,82,30.31,30.19,14,2,0,0.32
2013-1-3,54.4,46.3,39.1,39.7,36.5,34.4,85,70,49,30.41,30.28,16,3,0,0.00
2013-1-4,49.1,47.2,45.0,39.9,38.3,36.4,78,71,63,30.49,30.34,15,2,0,0.00
2013-1-5,47.0,44.9,42.9,45.5,43.4,38.8,100,94,74,30.39,30.24,11,1,0,0.56
2013-1-6,57.5,49.2,43.1,46.8,44.3,41.6,97,84,65,30.35,30.24,16,2,0,0.00
2013-1-7,55.7,48.7,39.4,47.8,43.8,37.3,95,84,73,30.31,30.08,11,2,0,0.01
2013-1-8,63.0,57.6,51.5,62.6,56.2,46.3,99,95,80,30.10,29.90,19,3,0,0.34
2013-1-9,65.1,62.1,59.4,64.5,61.6,58.8,99,98,97,30.10,29.80,26,4,0,1.10
2013-1-10,71.7,61.5,52.0,61.7,56.8,49.0,99,87,45,30.10,29.96,12,1,0,0.03
2013-1-11,70.1,58.7,47.2,63.9,54.5,45.0,99,87,61,30.06,29.89,11,1,0,0.01
2013-1-12,75.0,72.3,64.4,71.5,70.7,64.0,99,95,87,29.90,29.71,20,3,0,0.03
2013-1-13,72.1,50.6,43.0,70.1,46.9,40.1,96,87,78,30.13,29.77,21,4,0,0.20
2013-1-14,46.4,43.9,41.3,42.2,40.3,38.2,93,87,82,30.22,30.07,22,4,0,0.01
2013-1-15,43.2,39.5,36.9,39.5,36.7,34.4,93,90,86,30.16,30.04,16,3,0,0.03
2013-1-16,52.8,43.3,36.7,36.0,30.8,24.8,92,64,34,30.28,30.13,20,4,0,0.00
2013-1-17,62.7,47.1,32.0,39.6,33.5,27.9,89,63,35,30.47,30.27,14,1,0,0.00
2013-1-18,59.8,47.3,36.9,44.7,39.2,34.4,95,75,50,30.54,30.38,12,1,0,0.00
2013-1-19,64.0,51.4,37.3,54.3,47.4,35.2,98,87,69,30.38,30.20,12,1,0,0.00
2013-1-20,68.7,54.6,43.6,58.7,49.9,42.8,99,86,60,30.28,30.13,11,0,0,0.01
2013-1-21,71.7,55.9,44.8,56.9,49.4,43.7,98,81,51,30.24,30.14,8,0,0,0.01
2013-1-22,60.5,50.6,45.4,52.2,47.5,43.3,95,89,74,30.31,30.20,4,0,0,0.00
2013-1-23,75.5,60.5,46.8,62.6,56.0,45.2,99,86,60,30.36,30.24,12,1,0,0.01
2013-1-24,79.1,65.4,56.8,67.5,61.8,56.2,99,89,62,30.31,30.15,19,1,0,0.02
2013-1-25,67.1,62.9,58.1,64.9,61.3,57.3,100,95,90,30.17,30.10,7,0,0,0.01
2013-1-26,78.3,66.3,59.5,66.8,62.1,58.6,99,87,60,30.20,30.10,10,1,0,0.00
2013-1-27,75.2,67.6,60.5,68.4,64.7,59.5,98,91,79,30.16,30.05,16,1,0,0.01
2013-1-28,79.5,72.2,69.4,68.9,67.5,65.7,94,86,66,30.12,29.97,21,2,0,0.00
2013-1-29,74.4,71.7,58.9,71.1,69.0,55.1,94,91,78,29.97,29.63,28,5,0,0.20
2013-1-30,61.2,57.3,50.3,55.8,35.6,26.3,88,45,31,30.24,29.76,29,6,0,0.00
2013-1-31,68.5,52.4,36.6,38.5,34.0,26.3,87,54,25,30.33,30.21,17,1,0,0.00